Location: La Tonnevraie
(47.8998°N, 1.2576°W)
Time: 05:39:08
(UTC+00:00)

Daily predictions for brighter satellites

Satellite Brightness Start Highest point End
(mag) Time Altitude Azimuth Time Altitude Azimuth Time Altitude Azimuth
Cosmos 1025 Rocket 3.9 00:03:14 10° N 00:06:21 46° N 00:06:21 46° N
USA 267 4.3 00:02:04 10° ENE 00:08:11 44° NNW 00:14:18 10° W
SJ 16-02 3.4 00:09:53 19° ENE 00:09:53 19° ENE 00:11:55 10° NE
Okean 2 Rocket 3.8 00:10:41 51° NNE 00:10:41 51° NNE 00:14:07 10° NNE
Cosmos 1538 Rocket 4.1 00:06:26 10° NNW 00:11:04 71° NNW 00:11:04 71° NNW
SL-16 R/B 2.7 00:07:19 10° NNW 00:12:56 54° ENE 00:13:48 49° E
Nadezhda 4 Rocket 3.8 00:09:05 10° NNW 00:15:23 77° W 00:15:44 74° SW
Cosmos 2297 Rocket 2.1 00:28:55 88° N 00:28:55 88° N 00:34:32 10° NNE
Cosmos 2344 4.3 00:22:32 10° NW 00:32:02 77° SW 00:38:10 36° SSE
Cosmos 1980 4.5 00:28:55 10° NW 00:33:21 39° W 00:33:21 39° W
Cosmos 1092 Rocket 3.8 00:29:53 10° N 00:36:08 85° W 00:36:34 78° SSW
USA 229 DEB 4.4 00:36:45 35° ESE 00:36:45 35° ESE 00:42:43 10° NE
In-Cosmos 22 4.2 00:31:10 10° NNW 00:36:23 70° WNW 00:36:23 70° WNW
USA 229 4.4 00:36:53 34° ESE 00:36:53 34° ESE 00:42:48 10° NE
Cosmos 2034 Rocket 4.2 00:37:47 55° WSW 00:38:31 59° WNW 00:44:48 10° N
Cosmos 2219 3.3 00:41:47 62° W 00:42:09 64° WNW 00:47:45 10° NNE
Cosmos 2237 Rocket 3.1 00:36:59 10° NW 00:41:12 36° W 00:41:12 36° W
Cosmos 2151 Rocket 4.3 00:43:30 51° NNW 00:43:30 51° NNW 00:46:56 10° N
Meteor 1-15 Rocket 4.2 00:43:07 69° ESE 00:43:11 69° E 00:48:44 10° NNE
Meteor 1-24 Rocket 4.3 00:43:05 10° N 00:48:18 45° ENE 00:49:07 42° E
Cosmos 1680 Rocket 3.5 00:46:10 10° NNW 00:51:25 73° ENE 00:51:28 73° ENE
Cosmos 1674 4.3 00:47:44 10° N 00:49:53 32° N 00:49:53 32° N
CZ-4 R/B 4.0 00:46:33 10° NNE 00:51:18 79° NNW 00:51:18 79° NNW
Cosmos 1461 3.8 00:55:29 48° NE 00:55:29 48° NE 00:58:55 10° NE
PSLV R/B 4.2 01:01:55 10° N 01:06:13 54° NW 01:06:13 54° NW
CZ-2D R/B 3.2 01:02:10 10° NNE 01:07:10 34° E 01:08:00 33° ESE
Cosmos 1766 4.3 01:11:18 44° NNE 01:11:18 44° NNE 01:14:01 10° NNE
SL-16 R/B 3.0 01:09:25 36° SE 01:11:54 58° ENE 01:18:01 10° N
Cosmos 1943 4.3 01:06:42 10° NNW 01:11:59 40° NE 01:16:10 15° ESE
Cosmos 1733 4.3 01:14:34 43° NNE 01:14:34 43° NNE 01:17:18 10° NNE
Cosmos 1607 4.3 01:08:49 10° NW 01:14:32 48° WSW 01:14:32 48° WSW
Cosmos 1626 3.4 01:12:47 10° N 01:15:17 39° N 01:15:17 39° N
Cosmos 1655 Rocket 4.2 01:10:29 10° N 01:16:43 66° ENE 01:18:26 47° SE
Cosmos 2227 Rocket 2.8 01:18:31 42° W 01:19:33 47° NW 01:25:01 10° NNE
Cosmos 1470 4.1 01:24:19 35° ENE 01:24:19 35° ENE 01:27:35 10° NNE
Meteor 2-5 Rocket 3.6 01:19:16 10° NNW 01:24:50 71° W 01:25:04 70° WSW
Meteor 1-22 Rocket 4.0 01:25:04 70° SE 01:25:29 75° E 01:30:53 10° NNE
NPP 4.4 01:20:57 10° NNE 01:26:02 41° E 01:27:05 37° SE
Helios 1B rocket 3.3 01:22:44 10° N 01:25:58 42° NW 01:25:58 42° NW
Cosmos 2026 Rocket 4.3 01:22:52 10° NNW 01:28:39 46° W 01:29:05 46° WSW
Cosmos 2279 Rocket 3.9 01:29:43 62° SSW 01:30:48 80° W 01:37:02 10° N
Cosmos 1805 4.4 01:32:08 37° NNW 01:32:08 37° NNW 01:34:54 10° N
Resurs 1-4 Rocket 2.2 01:35:30 10° NNE 01:40:45 64° ESE 01:41:36 55° SSE
Cosmos 2180 Rocket 4.3 01:39:58 59° SSW 01:41:14 84° W 01:47:25 10° N
Cosmos 2098 Rocket 3.9 01:38:39 10° N 01:44:16 81° E 01:46:32 44° SSE
NOSS 2-3 (E) 3.9 01:44:49 59° ESE 01:44:49 59° ESE 01:49:37 10° NE
Cosmos 2082 4.2 01:44:36 43° W 01:45:45 49° NW 01:51:14 10° NNE
Okean 1 Rocket 4.2 01:46:41 33° WNW 01:46:41 33° WNW 01:50:17 10° N
SJ 16-02 2.1 01:46:52 41° WNW 01:46:52 41° WNW 01:50:59 10° N
NOSS 3-1 (C) 3.3 01:48:09 57° WSW 01:49:24 80° NW 01:55:56 10° NE
USA 267 4.4 01:44:21 10° ENE 01:50:26 42° N 01:56:30 10° WNW
SL-14 R/B 4.4 01:50:00 10° NNW 01:52:33 34° NW 01:52:33 34° NW
Meteor 2-19 Rocket 4.5 01:48:10 10° NNW 01:54:16 64° W 01:55:33 52° SW
SL-16 R/B 3.4 01:52:00 10° NW 01:55:38 26° W 01:55:38 26° W
Cosmos 2263 Rocket 2.3 01:56:40 49° SSE 01:57:53 62° ESE 02:03:23 10° NNE
MOZ.5/SAFIR/RUBIN 5/SL-8 4.2 02:00:53 45° W 02:00:53 45° W 02:05:05 10° NNW
Cosmos 724 4.4 01:57:01 10° NW 02:02:53 56° WSW 02:03:52 51° SSW
CZ-4C R/B 3.9 02:05:30 43° NW 02:05:30 43° NW 02:08:09 10° NNW
Cosmos 372 Rocket 4.3 02:04:37 45° SSE 02:05:55 58° ESE 02:11:05 10° NNE
Cosmos 1937 Rocket 3.6 02:07:18 54° WSW 02:08:22 69° WNW 02:13:41 10° NNE
Okean 1-7 Rocket 3.8 02:04:31 10° NNW 02:08:38 53° W 02:08:38 53° W
NOSS 2-3 (D) 3.5 02:08:30 71° SSW 02:08:59 85° SE 02:14:05 10° NE
COBE Rocket 3.7 02:08:32 49° SSE 02:09:47 80° ENE 02:14:27 10° N
Cosmos 1809 Rocket 4.4 02:04:00 10° N 02:10:09 82° E 02:13:15 31° SSE
Cosmos 1626 Rocket 3.5 02:07:56 10° N 02:12:16 79° E 02:13:03 58° SSE
ADEOS II 2.7 02:07:13 10° NNE 02:12:21 50° E 02:14:32 31° SSE
Cosmos 1455 Rocket 3.2 02:12:38 57° W 02:12:51 58° WNW 02:17:17 10° N
Cosmos 2297 Rocket 4.1 02:10:42 14° W 02:13:43 21° NW 02:17:53 10° N
ATLAS CENTAUR R/B 2.4 02:13:46 33° SE 02:14:00 33° ESE 02:17:35 10° NE
Cosmos 1726 2.3 02:14:19 60° ESE 02:14:24 61° E 02:18:01 10° NNE
CZ-4B R/B 3.5 02:10:36 10° NNE 02:15:21 65° ESE 02:16:40 45° SSE
UNK 4.1 02:17:20 46° W 02:17:20 46° W 02:21:48 10° NNW
Cosmos 2266 Rocket 4.1 02:14:49 10° NNW 02:21:00 57° W 02:22:57 41° SSW
Cosmos 1898 Rocket 4.3 02:24:13 32° W 02:25:36 38° WNW 02:30:29 10° N
GEOS 3 Rocket 3.6 02:21:03 10° NE 02:26:29 90° ENE 02:28:25 42° SW
USA 229 DEB 3.9 02:24:10 32° WSW 02:27:17 61° NW 02:34:11 10° NE
USA 229 3.9 02:24:18 32° WSW 02:27:24 61° NW 02:34:17 10° NE
Meteor 1-21 Rocket 4.1 02:23:08 10° NNW 02:28:42 88° W 02:31:40 29° S
Meteor 2-21 4.3 02:22:39 10° N 02:28:45 84° W 02:32:12 28° S
CBERS-1 4.0 02:24:01 10° NNE 02:29:10 76° ESE 02:31:10 38° S
Meteor 2-10 4.1 02:27:11 39° S 02:29:24 88° ESE 02:35:10 10° NNE
Cosmos 2084 3.8 02:28:47 47° SSE 02:29:37 55° SE 02:33:58 10° NE
ARIANE 5 R/B 3.6 02:27:44 10° NNE 02:32:41 41° E 02:36:11 18° SSE
Cosmos 1932 4.4 02:26:45 10° NW 02:33:12 68° WSW 02:39:29 10° SSE
Cosmos 1758 Rocket 4.2 02:30:48 10° N 02:35:03 53° ENE 02:38:14 17° SSE
NOSS 2-3 (C) 4.0 02:35:34 40° WSW 02:36:56 59° NW 02:42:08 10° NE
Cosmos 1603 4.0 02:32:09 10° NW 02:37:36 45° WSW 02:39:05 37° SSW
NOSS 3-1 (A) 3.6 02:36:02 34° WSW 02:38:33 64° NW 02:45:05 10° NE
Cosmos 1340 Rocket 3.7 02:42:44 32° W 02:42:56 32° WNW 02:46:32 10° N
Cosmos 494 Rocket 4.4 02:38:55 10° NNW 02:44:04 64° ENE 02:49:13 10° SSE
MINOTAUR IV R/B 4.4 02:39:39 10° NNW 02:44:08 69° WSW 02:46:15 30° S
Cosmos 2150 Rocket 4.0 02:42:28 35° SSW 02:44:41 82° ESE 02:49:59 10° NNE
Cosmos 1758 4.1 02:44:28 34° W 02:44:47 35° WNW 02:48:29 10° N
CZ-2D R/B 2.9 02:42:09 10° N 02:47:15 40° WNW 02:49:19 29° WSW
H-2A R/B 4.0 02:44:40 10° ESE 02:48:09 28° ENE 02:51:40 10° N
Cosmos 1703 3.3 02:46:40 10° N 02:50:39 82° E 02:52:42 27° SSE
Cosmos 1825 Rocket 3.9 02:49:20 10° N 02:53:38 65° ENE 02:57:30 13° SSE
SL-16 R/B 3.5 02:54:31 26° WSW 02:55:51 28° W 03:01:09 10° NW
Cosmos 1943 3.7 02:50:51 10° NW 02:56:01 38° WSW 02:57:52 30° SSW
Cosmos 1125 Rocket 3.7 02:54:01 26° S 02:56:57 70° ESE 03:02:14 10° NNE
Nadezhda 2 Rocket 4.4 02:52:26 10° NNW 02:58:34 65° W 03:02:51 20° S
USA 215 3.9 02:53:25 10° ENE 02:59:40 45° SE 03:03:50 21° SSW
Cosmos 1470 4.4 02:59:40 20° WNW 03:00:05 21° WNW 03:03:09 10° NNW
IRS-1C 4.1 02:55:07 10° NNE 03:00:30 88° ESE 03:03:50 24° SSW
Cosmos 1953 2.8 02:59:36 37° WSW 03:00:35 46° WNW 03:04:32 10° N
IRS-1D 3.8 02:58:37 10° N 03:03:36 54° WNW 03:06:07 28° SW
Cosmos 1328 3.7 03:00:29 10° N 03:04:30 83° W 03:07:02 22° S
Cosmos 1953 Rocket 4.2 03:00:40 10° N 03:05:07 58° ENE 03:09:30 10° SSE
CZ-2D R/B 3.8 03:06:05 10° NNE 03:10:01 57° E 03:12:51 18° S
Resurs 1-4 Rocket 3.6 03:16:11 10° N 03:20:07 22° WNW 03:22:40 16° W
Meteor 2-8 Rocket 4.4 03:15:17 15° S 03:20:27 86° W 03:26:36 10° N
NOSS 8 (F) 4.1 03:20:18 35° WSW 03:21:25 71° NW 03:24:26 10° NE
Cosmos 1606 Rocket 3.5 03:19:24 18° S 03:22:39 87° W 03:27:09 10° N
Atlas Centaur 2 4.0 03:20:39 15° SSW 03:22:42 17° S 03:27:07 10° SE
NOSS 2-2 (E) 4.0 03:22:45 20° S 03:24:53 44° ESE 03:28:40 10° NE
CENTAUR R/B 4.4 03:18:01 10° NW 03:25:21 44° NE 03:33:31 10° ESE
NOSS 2-2 (D) 4.4 03:23:30 16° S 03:25:50 34° ESE 03:29:21 10° NE
IDEFIX/ARIANE 42P 2.6 03:23:55 10° NNE 03:29:10 84° ESE 03:34:08 11° SSW
USA 267 3.6 03:26:27 10° ESE 03:32:57 71° NNE 03:39:28 10° NW
Cosmos 1908 3.8 03:31:23 23° SW 03:33:18 40° WNW 03:37:01 10° N
MSX 4.1 03:29:17 10° NNE 03:35:04 68° ESE 03:40:48 10° S
Cosmos 1726 Rocket 3.5 03:33:33 14° SSW 03:37:21 78° W 03:41:51 10° N
Cosmos 2228 3.2 03:36:23 17° SSW 03:39:38 58° WNW 03:44:00 10° N
Helios 1B 4.5 03:36:19 10° S 03:40:39 75° WSW 03:45:00 10° NNW
Cosmos 2263 Rocket 3.5 03:38:22 13° W 03:42:14 27° NW 03:46:57 10° N
Cosmos 1844 3.9 03:37:25 12° SSW 03:42:53 74° ESE 03:48:40 10° NNE
Meteor 1-28 Rocket 4.2 03:41:32 19° SW 03:43:15 27° W 03:46:31 10° NW
Cosmos 1386 Rocket 4.4 03:40:24 10° NNW 03:46:21 65° W 03:52:17 10° S
SL-08 R/B 4.2 03:44:25 14° SSW 03:48:01 30° W 03:52:23 10° NNW
CZ-2C R/B 2.6 03:44:53 10° NNE 03:48:43 85° WNW 03:52:27 10° SSW
Cosmos 1726 4.3 03:48:49 10° W 03:50:01 12° WNW 03:51:20 10° NW
Cosmos 1356 Rocket 3.5 03:46:41 14° SSW 03:50:10 58° WNW 03:54:14 10° N
ADEOS II 3.3 03:47:25 10° N 03:51:47 27° WNW 03:55:27 13° WSW
ATLAS CENTAUR R/B 2.4 03:49:57 14° WSW 03:52:52 32° NW 03:56:25 10° NNE
Cosmos 1300 2.6 03:49:36 10° SSW 03:53:19 71° W 03:57:09 10° N
Spot 4 Rocket 4.2 03:48:21 10° N 03:53:26 60° WNW 03:58:29 10° SSW
ERS-2 2.0 03:52:56 10° S 03:56:34 75° WSW 04:00:14 10° NNW
CZ-4C R/B 3.1 03:56:15 10° S 03:59:28 48° W 04:02:48 10° NNW
Cosmos 1269 Rocket 4.2 03:54:33 10° NNW 03:59:43 52° WSW 04:04:50 10° S
COSMOS 2441 4.3 03:59:09 10° N 04:03:58 78° WNW 04:08:48 10° SSW
Cosmos 2278 Rocket 4.0 03:59:14 10° SSE 04:04:05 30° ESE 04:08:58 10° NE
Cosmos 1844 Rocket 2.8 03:59:23 11° SW 04:04:42 65° WNW 04:10:16 10° NNE
Cosmos 2251 Rocket 4.3 04:01:39 10° NNW 04:06:58 58° ENE 04:12:15 10° SE
Cosmos 1833 Rocket 3.9 04:03:15 10° NNW 04:08:44 47° NE 04:14:10 10° SE
NOSS 2-2 (C) 3.1 04:05:43 11° SW 04:09:05 87° NW 04:13:06 10° NE
Lacrosse 5 rocket 3.6 04:06:26 10° S 04:09:59 23° SE 04:13:36 10° ENE
NOSS 3-2 (A) 4.2 04:02:52 10° NW 04:10:20 84° NE 04:18:47 10° SE
ARIANE 5 R/B 3.5 04:07:04 10° N 04:11:41 32° WNW 04:16:16 10° SW
USA 281 4.1 04:05:44 10° NE 04:12:06 50° ESE 04:18:25 10° S
SeaSat 1 3.3 04:10:16 10° NE 04:15:05 50° ESE 04:19:52 10° S
NOSS 3-2 (C) 4.5 04:13:02 10° NW 04:20:25 70° NE 04:28:47 10° SE
Meteor 2-10 Rocket 4.3 04:15:52 10° S 04:21:01 57° E 04:26:25 10° NNE
SAR-Lupe-1 4.4 04:17:55 10° SSE 04:21:29 73° ENE 04:25:04 10° N
Cosmos 1867 3.6 04:17:57 10° NW 04:23:26 75° SW 04:28:52 10° SSE
H-2A R/B 2.8 04:20:27 10° SSW 04:24:04 30° W 04:27:44 10° NW
Cosmos 2058 Rocket 3.6 04:19:55 10° SW 04:24:08 41° WNW 04:28:20 10° N
Cosmos 2058 2.9 04:25:39 10° NNW 04:29:50 76° W 04:34:01 10° S
Cosmos 2184 Rocket 4.5 04:25:01 10° N 04:31:18 69° ENE 04:37:29 10° SSE
CZ-2C R/B 2.3 04:27:01 10° NNE 04:31:38 79° WNW 04:36:19 10° SSW
Cosmos 2074 Rocket 4.4 04:25:31 10° N 04:31:49 72° E 04:38:06 10° SSE
